Regional Weather Roundup
Issued by NWS Kansas City/Pleasant Hill, MO

Home | Current Version | Previous Version | Graphics & Text | Print | Product List | Glossary Off
Versions: 1 2 3 4 5 6 7 8 9 10 11 12 13 14 15 16 17 18 19 20 21 22 23 24 25 26 27 28 29 30 31 32 33 34 35 36 37 38 39 40 41 42 43 44 45 46 47 48 49 50

024
ASUS43 KEAX 291210
RWREAX

WEATHER ROUNDUP FOR EASTERN KANSAS AND NORTHWEST MISSOURI
NATIONAL WEATHER SERVICE KANSAS CITY/PLEASANT HILL MO
700 AM CDT WED MAR 29 2017

KSZ040-057-103>105-MOZ028-029-037-043-291300-
...KANSAS CITY METROPOLITAN AREA...

CITY           SKY/WX    TMP DP  RH WIND       PRES   REMARKS
K.C. INTL      DRIZZLE   49  48  97 E18G26    29.89F FOG
6HR MIN TEMP:  49; 6HR MAX TEMP:  52; 6HR PCP:  0.90;

K.C. DOWNTOWN  CLOUDY    50  48  93 E18G25    29.89F
6HR MIN TEMP:  50; 6HR MAX TEMP:  54; 6HR PCP:  0.80;

LEES SUMMIT    LGT RAIN  49  49 100 E18G29    29.88F FOG
6HR MIN TEMP:  49; 6HR MAX TEMP:  53; 6HR PCP:  0.71;

OLATHE - IXD   LGT RAIN  50  48  93 E17G26    29.85F
6HR MIN TEMP:  50; 6HR MAX TEMP:  53; 6HR PCP:  0.92;

OLATHE - OJC   CLOUDY    49  49 100 E14G25    29.85F
6HR MIN TEMP:  49; 6HR MAX TEMP:  52; 6HR PCP:  0.94;

LAWRENCE       LGT RAIN  51  49  92 NE18G29   29.84F

$$

MOZ001>008-011>017-020>025-030>033-038>040-044>046-053-054-291300-
...NORTHERN AND CENTRAL MISSOURI...

CITY           SKY/WX    TMP DP  RH WIND       PRES   REMARKS
ST. JOSEPH     LGT RAIN  48  48 100 E16G28    29.90F FOG
6HR MIN TEMP:  48; 6HR MAX TEMP:  52; 6HR PCP:  0.62;

MOSBY          CLOUDY    50  46  87 E13       29.92F FOG
WARRENSBURG    DRIZZLE   50  48  93 NE12      29.91F
WHITEMAN AFB   LGT RAIN  50  50 100 E9        29.90F FOG
6HR MIN TEMP:  50; 6HR MAX TEMP:  53; 6HR PCP:  0.82;

CLINTON        CLOUDY    50  50 100 E8        29.89F FOG
SEDALIA        RAIN      51  50  96 E13       29.94F FOG
6HR MIN TEMP:  51; 6HR MAX TEMP:  54; 6HR PCP:  0.52;

WARSAW         NOT AVBL
CHILLICOTHE      N/A     48  47  96 E13G18    29.99F
6HR MIN TEMP:  48; 6HR MAX TEMP:  52; 6HR PCP:  0.56;

KIRKSVILLE     LGT RAIN  47  43  86 NE8       30.10R
6HR MIN TEMP:  47; 6HR MAX TEMP:  49; 6HR PCP:  0.01;


$$

MOZ041-047>049-056>058-063>065-088>090-097-291300-
...EASTERN AND SOUTHERN MISSOURI...

CITY           SKY/WX    TMP DP  RH WIND       PRES   REMARKS
ST. LOUIS INTL NOT AVBL
SPIRIT OF STL  CLOUDY    50  45  83 E12       29.99F
COLUMBIA       TSTM      51  48  89 E17G26    29.91S
JEFFERSON CITY CLOUDY    54  48  80 E20       29.93R
ROLLA          CLOUDY    52  49  89 E22G30    29.91S
OSAGE BEACH    TSTM      54  48  82 SE9       29.95R
SPRINGFIELD    PTCLDY    55  50  83 SE18      29.83F
BRANSON        CLOUDY    54  50  87 E21       29.85F
JOPLIN         MOCLDY    57  54  89 E16G26    29.72F
WEST PLAINS    CLOUDY    54  50  86 E10       29.94R

$$

IAZ060-094-KSZ022-034>040-054-083-096-NEZ052-066-093-291300-
...KANSAS...SOUTHEAST NEBRASKA AND IOWA...

CITY           SKY/WX    TMP DP  RH WIND       PRES   REMARKS
TOPEKA         LGT RAIN  51  50  96 E17       29.83F
6HR MIN TEMP:  51; 6HR MAX TEMP:  53; 6HR PCP:  1.26;

MANHATTAN      LGT RAIN  50  49  96 NE21G30   29.81F
EMPORIA        CLOUDY    50  50 100 E23G30    29.73F
CHANUTE        LGT RAIN  57  55  93 E16G23    29.70F
WICHITA        LGT RAIN  50  50 100 N14       29.67F
OMAHA          LGT RAIN  47  42  83 NE13      30.02F
LINCOLN        LGT RAIN  46  44  93 NE13      30.00R
FALLS CITY     LGT RAIN  48  46  93 E16       29.92S
LAMONI         RAIN      45  44  97 NE18      29.98F FOG
DES MOINES     LGT RAIN  45  40  82 E9        30.10F

$$





USA.gov is the U.S. government's official web portal to all federal, state and local government web resources and services.